SCP
0 0 0 0 0 0 0 0 0 0 0 0 0 0 0 0 0 0 0 0 0 0 0 0 0 0 0 0 0 0 0 0 0 0 0 0 0 0 0 0 0 0 0
0 0 0 0 0 0 0 0 0 0 0 0 0 0 0 0 0 0 0 0 0 0 0 0 0 0 0 0 0 0 0 0 0 0 0 0 0 0 0 0 0 0 0
0 0 0 0 0 0 0 0 0 0 0 0 0 0 0 0 0 0 0 0 0 0 0 0 0 0 0 0 0 0 0 0 0 0 0 0 0 0 0 0 0 0 0
0 0 0 0 0 0 0 0 0 0 0 0 0 0 0 0 0 0 0 0 0 0 0 0 0 0 0 0 0 0 0 0 0 0 0 0 0 0 0 0 0 0 0
0 0 0 0 0 0 0 0 0 0 0 0 0 0 0 0 0 0 0 0 0 0 0 0 0 0 0 0 0 0 0 0 0 0 0 0 0 0 0 0 0 0 0
0 0 0 0 0 0 0 0 0 0 0 0 0 0 0 0 0 0 0 0 0 0 0 0 0 0 0 0 0 0 0 0 0 0 0 0 0 0 0 0 0 0 0
0 0 0 0 0 0 0 0 0 0 0 0 0 0 0 0 0 0 0 0 0 0 0 0 0 0 0 0 0 0 0 0 0 0 0 0 0 0 0 0 0 0 0
0 0 0 0 0 0 0 -0 -0 -0 -0 -0 0 0 0 0 0 0 0 0 0 0 0 0 0 0 0 0 0 0 0 0 0 0 0 0 0 0 0 0 0 0 0
0 0 0 -0 -0 -0 -0 -0 -0 -0 -0 -0 -0 -0 -0 -0 0 0 0 0 0 0 0 0 0 0 0 0 0 0 0 0 0 0 0 0 0 0 0 0 0 0 0
0 0 -0 -0 -0 -0 -0 -0 -0 -0 -0 -0 -0 -0 -0 -0 -0 -0 0 0 0 0 0 0 0 0 0 0 0 0 0 0 0 0 0 0 0 0 0 0 0 0 0
0 0 0 -0 -0 -0 -0 -0 -0 -0 -0 -0 0 0 0 -0 -0 -0 -0 -0 -0 0 0 0 0 0 0 0 0 0 0 0 0 0 0 0 0 0 0 0 0 0 0
-0 -0 -0 -0 -0 0 0 0 0 0 0 -0 -0 -0 -0 -0 -0 -0 -0 -0 -0 -0 -0 -0 -0 0 0 0 0 0 0 0 0 0 0 0 0 0 0 0 0 0 0
0 -0 0 -0 -0 0 0 0 0 0 0 0 0 0 0 0 0 0 0 0 0 0 0 0 0 0 0 0 0 0 0 0 0 0 0 0 0 0 0 0 0 0 0
0 0 0 -0 -0 -0 -0 -0 -0 -0 -0 -0 -0 0 0 0 0 0 0 0 0 0 0 0 0 0 0 0 0 0 0 0 0 0 0 0 0 0 0 0 0 0 0
0 0 0 0 0 -0 -0 -0 -0 -0 -0 -0 -0 -0 0 0 0 0 0 0 0 0 0 0 0 0 0 0 0 0 0 0 0 0 0 0 0 0 0 0 0 0 0
0 0 0 0 0 0 0 0 -0 0 0 0 0 0 0 0 0 0 0 0 0 0 0 0 0 0 0 0 0 0 0 0 0 0 0 0 0 0 0 0 0 0 0
0 0 0 0 0 0 0 0 0 0 0 0 0 0 0 0 0 0 0 0 0 0 0 0 0 0 0 0 0 0 0 0 0 0 0 0 0 0 0 0 0 0 0
0 0 0 0 0 0 0 0 0 0 0 0 0 0 0 0 0 0 0 0 0 0 0 0 0 0 0 0 0 0 0 0 0 0 0 0 0 0 0 0 0 0 0
0 0 0 0 0 0 0 0 0 0 0 0 0 0 0 0 0 0 0 0 0 0 0 0 0 0 0 0 0 0 0 -0 -0 0 0 0 0 0 0 0 0 0 0
0 0 0 0 0 0 0 0 -0 0 0 0 0 0 0 0 0 0 0 0 0 0 0 0 0 0 0 0 0 0 -0 -0 -0 -0 -0 0 0 0 0 0 0 0 0
0 0 0 0 0 0 0 0 0 0 0 0 0 0 0 0 0 0 0 0 0 0 0 0 0 0 0 0 0 0 0 0 -0 -0 -0 -0 -0 0 0 0 0 0 0
0 0 0 0 0 0 0 0 0 0 0 0 0 0 0 0 0 0 0 0 0 0 0 0 0 0 0 0 0 0 0 0 0 0 0 0 0 0 0 0 0 0 0
0 0 0 0 0 0 0 0 0 0 0 0 0 0 0 0 0 0 0 0 0 0 0 0 0 0 0 0 0 0 0 0 0 0 0 0 0 0 0 0 0 0 0
0 0 0 0 0 0 0 0 0 0 0 0 0 0 0 0 0 0 0 0 0 0 0 0 0 0 0 0 0 0 0 0 0 0 0 0 0 0 0 0 0 0 0
0 0 0 0 0 0 0 0 0 0 0 0 0 0 0 0 0 0 0 0 0 0 0 0 0 0 0 0 0 0 0 0 0 0 0 0 0 0 0 0 0 0 0
0 0 0 0 0 0 0 0 0 0 0 0 0 0 0 0 0 0 0 0 0 0 0 0 0 0 0 -0 -0 -0 -0 0 0 0 0 0 0 0 0 0 0 0 0
Wind_Speed_500mb
44 41 40 36 34 31 25 20 11 9 3 5 2 12 20 25 28 30 35 42 46 50 53 55 57 60 63 65 66 66 67 68 65 64 65 66 64 63 64 60 58 58 54
48 48 48 47 51 51 48 37 29 21 17 13 12 7 2 5 10 17 24 28 33 42 49 52 52 54 59 65 69 70 71 71 70 73 72 56 72 75 74 70 67 64 64
50 48 49 51 49 51 52 49 44 38 31 22 14 11 7 4 6 9 14 20 24 29 35 41 47 50 54 59 64 70 72 76 77 81 75 29 47 54 72 82 76 74 73
47 47 48 51 53 52 48 47 45 42 40 35 30 27 25 23 21 23 24 23 22 20 24 27 33 42 47 53 56 59 66 72 81 84 91 93 63 40 41 59 78 84 81
42 43 44 44 42 39 39 37 35 34 33 31 30 28 27 26 25 23 23 23 23 28 24 26 34 36 43 49 50 55 61 68 75 86 93 98 101 75 68 67 63 78 83
39 38 36 35 38 37 35 35 32 31 30 30 29 31 29 27 26 27 29 31 28 24 28 32 34 37 40 44 50 53 59 66 74 83 89 97 97 102 81 82 82 79 79
34 33 35 37 38 41 41 38 34 31 28 26 27 28 30 31 32 35 39 42 42 37 31 35 41 44 44 48 50 53 59 66 78 83 90 96 104 105 99 96 98 89 84
26 28 29 31 33 32 33 35 39 39 37 34 29 24 25 27 27 29 34 40 44 47 46 44 42 44 50 56 54 57 58 63 74 84 92 94 99 101 108 113 99 92 88
17 18 19 19 20 24 28 32 35 38 39 42 42 43 34 28 28 27 30 35 40 44 47 48 50 49 48 51 53 58 62 65 70 78 86 95 98 101 107 105 110 103 87
6 10 16 18 18 21 26 30 34 38 41 43 45 45 45 50 49 43 40 41 42 44 48 51 52 53 53 52 52 55 59 63 70 76 82 91 95 100 106 107 110 109 113
3 10 13 15 17 23 33 35 38 42 49 54 55 55 56 58 59 58 58 57 55 53 52 53 55 56 59 58 57 55 56 63 66 70 79 88 90 97 104 102 105 115 109
4 8 17 17 22 28 39 44 45 49 54 58 59 62 61 62 68 70 70 70 71 69 65 61 59 56 57 59 61 62 59 59 65 69 73 81 84 94 96 101 105 108 112
2 9 15 18 25 34 46 47 51 57 63 65 70 70 70 73 76 78 79 79 81 81 82 78 76 71 64 62 60 60 63 64 64 64 70 77 79 88 90 94 102 103 107
4 9 11 13 23 37 42 45 49 54 56 60 71 75 77 87 87 86 84 85 88 91 91 89 90 90 83 77 70 65 65 68 69 66 67 70 76 86 86 88 95 97 99
14 14 15 21 29 32 33 41 53 55 56 62 70 74 78 94 94 91 92 96 99 100 100 100 99 98 97 95 87 78 75 72 73 73 70 68 70 73 82 84 89 92 95
9 8 25 28 32 37 42 43 41 39 50 60 67 74 94 96 96 100 103 107 110 112 116 118 115 114 111 107 103 95 87 84 81 80 78 75 71 71 70 79 85 91 94
19 29 34 33 28 32 39 49 61 66 69 73 79 86 90 95 93 91 95 100 102 108 115 118 115 124 126 120 103 95 88 92 90 88 85 85 81 75 71 69 74 93 95
28 35 41 46 49 53 60 67 68 69 78 88 93 91 88 90 93 96 98 103 107 110 106 102 107 111 130 114 91 73 71 87 99 100 97 93 91 82 76 74 73 77 92
27 42 50 53 55 63 69 71 80 87 89 94 94 86 91 94 101 108 109 111 115 121 123 118 111 95 110 115 104 86 83 92 111 114 110 103 98 92 83 74 78 81 86
39 46 53 57 61 65 71 83 91 92 90 87 91 97 99 100 107 106 104 99 94 102 106 120 122 122 121 109 85 82 90 101 101 104 109 106 95 95 88 80 79 83 86
45 51 56 59 60 68 79 87 91 92 91 94 97 99 99 99 97 93 86 84 83 85 87 91 93 96 103 111 106 99 96 102 102 106 103 97 85 85 81 75 79 90 80
54 56 59 57 63 74 82 87 88 89 93 95 97 98 97 90 84 79 79 78 79 84 87 89 90 87 84 78 71 74 86 96 104 110 107 97 83 82 77 73 77 78 80
52 53 54 61 69 74 77 82 83 87 91 94 95 94 85 78 75 75 76 77 77 82 86 84 84 86 82 81 70 67 69 74 79 87 89 87 86 82 79 77 78 76 78
51 51 57 67 73 72 71 72 77 82 87 91 90 85 82 80 76 75 75 76 79 81 84 86 92 97 96 89 81 78 79 71 65 78 82 59 71 87 82 83 86 80 82
48 52 62 68 69 68 68 68 72 78 83 86 86 84 80 78 78 75 75 72 76 74 81 88 89 90 91 86 82 82 85 82 84 83 83 81 73 53 64 70 67 75 79
48 57 63 66 65 64 64 65 69 74 79 82 81 80 79 78 78 79 82 69 68 68 69 74 78 88 87 85 81 79 78 77 75 79 86 80 70 71 65 67 67 60 71
Wind_Direction_500mb
81 78 77 75 74 79 87 95 120 106 117 141 160 244 257 263 270 269 269 273 273 273 273 274 272 270 267 267 265 263 260 257 251 248 249 248 246 245 245 241 242 245 245
84 73 73 71 69 67 69 71 68 67 67 75 86 73 330 280 296 282 280 279 278 278 280 280 279 276 273 270 266 263 259 255 249 244 246 250 250 249 245 243 241 243 246
84 77 72 68 66 62 60 59 59 58 55 50 40 41 46 19 288 279 275 277 280 283 283 282 281 280 278 276 275 271 265 261 252 247 240 235 239 252 247 245 244 242 242
82 77 70 68 62 58 55 52 50 50 50 48 46 39 31 20 2 334 325 313 297 291 296 297 288 282 279 276 276 276 273 268 261 255 248 243 252 247 244 245 243 242 240
81 70 60 56 54 49 43 39 35 34 34 29 25 22 23 19 8 355 342 328 314 298 290 299 299 292 285 281 278 274 270 269 265 260 258 256 248 250 250 252 247 241 243
77 68 58 45 37 32 28 27 23 19 11 6 3 360 357 352 343 338 335 337 334 315 296 288 283 284 287 283 279 277 274 270 268 261 256 254 252 248 245 248 251 256 251
69 54 37 28 22 17 12 13 16 20 16 8 1 352 346 343 341 340 336 330 326 323 316 302 289 282 280 276 276 273 270 269 268 266 263 260 257 256 255 253 254 258 255
65 50 37 25 20 21 19 17 17 16 17 16 15 11 2 352 350 347 339 333 328 324 321 315 311 302 288 276 268 269 270 268 266 265 266 266 264 261 259 256 255 254 252
62 37 31 34 33 30 28 25 21 19 16 13 10 9 5 356 358 354 338 327 322 319 318 317 313 310 307 293 278 269 266 268 269 267 265 264 265 264 263 261 256 253 254
75 40 18 18 24 23 24 18 15 10 6 2 359 356 351 348 349 347 339 331 324 318 315 312 311 310 309 306 301 289 277 270 267 265 267 265 265 263 262 261 261 256 254
318 334 349 349 1 5 1 357 356 358 355 352 348 345 342 339 336 333 331 328 326 324 320 316 311 309 309 308 306 303 297 285 274 269 267 265 265 266 264 262 261 260 256
193 308 323 329 335 335 337 337 335 334 336 339 337 335 334 333 330 326 323 322 320 319 317 314 310 309 306 304 305 306 303 297 291 283 272 269 268 265 263 264 260 259 259
40 319 317 303 322 331 327 325 327 327 327 327 328 326 325 324 323 320 317 315 314 312 311 310 308 305 303 302 301 301 302 300 295 290 282 276 272 268 265 262 261 259 258
29 350 334 334 326 322 319 319 317 315 312 314 317 317 319 320 318 315 311 308 307 306 306 305 304 302 301 298 297 297 295 294 295 293 288 283 275 272 269 266 263 261 256
326 306 316 315 311 311 318 318 311 306 310 308 308 307 306 309 310 308 307 306 305 303 302 301 299 298 297 296 297 293 291 289 288 289 290 287 282 280 271 267 264 262 257
348 320 315 319 319 314 313 311 312 302 299 299 298 298 302 304 304 304 303 301 299 298 298 296 294 292 290 290 291 291 289 287 284 284 286 287 288 283 280 270 258 260 254
315 323 329 324 317 309 309 309 310 308 305 302 301 302 303 304 303 300 297 295 295 295 293 293 293 293 290 288 289 288 288 284 282 281 282 285 286 287 285 281 274 255 248
311 316 317 313 313 315 314 312 312 312 311 310 310 309 306 299 296 292 288 286 284 282 281 283 285 285 285 286 286 285 283 281 279 278 279 279 280 283 285 283 278 273 257
305 309 310 309 309 311 314 317 317 318 317 317 315 310 306 303 299 295 293 289 285 282 281 280 278 280 282 283 281 283 283 285 284 282 279 276 276 277 281 274 271 273 272
298 304 307 309 311 315 317 318 320 321 322 319 315 312 311 308 307 306 305 303 298 292 289 282 278 279 278 275 281 280 280 283 284 285 282 278 273 272 272 272 266 261 269
298 300 308 312 315 316 318 319 320 322 320 318 316 315 314 314 313 312 311 310 308 304 301 298 295 291 285 283 279 277 276 277 281 280 279 277 272 267 265 263 261 260 267
298 304 309 312 315 318 319 319 320 319 318 318 319 320 319 316 314 313 312 311 310 307 306 306 305 303 302 299 293 284 274 272 271 272 274 272 267 263 261 262 262 260 261
299 304 307 312 317 319 320 319 320 321 320 321 323 321 319 321 321 318 316 314 313 309 305 300 298 299 302 304 301 294 284 277 272 272 271 270 260 259 258 257 259 258 257
300 305 310 313 315 318 319 320 323 323 322 324 323 326 328 327 325 322 319 314 310 303 300 298 298 301 301 301 301 300 300 296 292 284 275 273 264 256 252 259 260 252 251
299 304 309 312 315 316 319 324 325 326 326 324 329 332 330 328 326 325 321 312 307 299 299 295 294 295 295 294 295 292 288 286 285 289 285 282 281 275 256 253 261 253 252
298 305 311 312 314 315 320 327 328 330 329 328 332 333 331 330 327 325 324 326 314 303 300 298 296 296 294 295 294 291 287 283 281 276 272 273 275 271 267 262 262 263 251
Wind_Speed_850mb
44 41 40 36 34 31 25 20 11 9 3 5 2 12 20 25 28 30 35 42 46 50 53 55 57 60 63 65 66 66 67 68 65 64 65 66 64 63 64 60 58 58 54
48 48 48 47 51 51 48 37 29 21 17 13 12 7 2 5 10 17 24 28 33 42 49 52 52 54 59 65 69 70 71 71 70 73 72 56 72 75 74 70 67 64 64
50 48 49 51 49 51 52 49 44 38 31 22 14 11 7 4 6 9 14 20 24 29 35 41 47 50 54 59 64 70 72 76 77 81 75 29 47 54 72 82 76 74 73
47 47 48 51 53 52 48 47 45 42 40 35 30 27 25 23 21 23 24 23 22 20 24 27 33 42 47 53 56 59 66 72 81 84 91 93 63 40 41 59 78 84 81
42 43 44 44 42 39 39 37 35 34 33 31 30 28 27 26 25 23 23 23 23 28 24 26 34 36 43 49 50 55 61 68 75 86 93 98 101 75 68 67 63 78 83
39 38 36 35 38 37 35 35 32 31 30 30 29 31 29 27 26 27 29 31 28 24 28 32 34 37 40 44 50 53 59 66 74 83 89 97 97 102 81 82 82 79 79
34 33 35 37 38 41 41 38 34 31 28 26 27 28 30 31 32 35 39 42 42 37 31 35 41 44 44 48 50 53 59 66 78 83 90 96 104 105 99 96 98 89 84
26 28 29 31 33 32 33 35 39 39 37 34 29 24 25 27 27 29 34 40 44 47 46 44 42 44 50 56 54 57 58 63 74 84 92 94 99 101 108 113 99 92 88
17 18 19 19 20 24 28 32 35 38 39 42 42 43 34 28 28 27 30 35 40 44 47 48 50 49 48 51 53 58 62 65 70 78 86 95 98 101 107 105 110 103 87
6 10 16 18 18 21 26 30 34 38 41 43 45 45 45 50 49 43 40 41 42 44 48 51 52 53 53 52 52 55 59 63 70 76 82 91 95 100 106 107 110 109 113
3 10 13 15 17 23 33 35 38 42 49 54 55 55 56 58 59 58 58 57 55 53 52 53 55 56 59 58 57 55 56 63 66 70 79 88 90 97 104 102 105 115 109
4 8 17 17 22 28 39 44 45 49 54 58 59 62 61 62 68 70 70 70 71 69 65 61 59 56 57 59 61 62 59 59 65 69 73 81 84 94 96 101 105 108 112
2 9 15 18 25 34 46 47 51 57 63 65 70 70 70 73 76 78 79 79 81 81 82 78 76 71 64 62 60 60 63 64 64 64 70 77 79 88 90 94 102 103 107
4 9 11 13 23 37 42 45 49 54 56 60 71 75 77 87 87 86 84 85 88 91 91 89 90 90 83 77 70 65 65 68 69 66 67 70 76 86 86 88 95 97 99
14 14 15 21 29 32 33 41 53 55 56 62 70 74 78 94 94 91 92 96 99 100 100 100 99 98 97 95 87 78 75 72 73 73 70 68 70 73 82 84 89 92 95
9 8 25 28 32 37 42 43 41 39 50 60 67 74 94 96 96 100 103 107 110 112 116 118 115 114 111 107 103 95 87 84 81 80 78 75 71 71 70 79 85 91 94
19 29 34 33 28 32 39 49 61 66 69 73 79 86 90 95 93 91 95 100 102 108 115 118 115 124 126 120 103 95 88 92 90 88 85 85 81 75 71 69 74 93 95
28 35 41 46 49 53 60 67 68 69 78 88 93 91 88 90 93 96 98 103 107 110 106 102 107 111 130 114 91 73 71 87 99 100 97 93 91 82 76 74 73 77 92
27 42 50 53 55 63 69 71 80 87 89 94 94 86 91 94 101 108 109 111 115 121 123 118 111 95 110 115 104 86 83 92 111 114 110 103 98 92 83 74 78 81 86
39 46 53 57 61 65 71 83 91 92 90 87 91 97 99 100 107 106 104 99 94 102 106 120 122 122 121 109 85 82 90 101 101 104 109 106 95 95 88 80 79 83 86
45 51 56 59 60 68 79 87 91 92 91 94 97 99 99 99 97 93 86 84 83 85 87 91 93 96 103 111 106 99 96 102 102 106 103 97 85 85 81 75 79 90 80
54 56 59 57 63 74 82 87 88 89 93 95 97 98 97 90 84 79 79 78 79 84 87 89 90 87 84 78 71 74 86 96 104 110 107 97 83 82 77 73 77 78 80
52 53 54 61 69 74 77 82 83 87 91 94 95 94 85 78 75 75 76 77 77 82 86 84 84 86 82 81 70 67 69 74 79 87 89 87 86 82 79 77 78 76 78
51 51 57 67 73 72 71 72 77 82 87 91 90 85 82 80 76 75 75 76 79 81 84 86 92 97 96 89 81 78 79 71 65 78 82 59 71 87 82 83 86 80 82
48 52 62 68 69 68 68 68 72 78 83 86 86 84 80 78 78 75 75 72 76 74 81 88 89 90 91 86 82 82 85 82 84 83 83 81 73 53 64 70 67 75 79
48 57 63 66 65 64 64 65 69 74 79 82 81 80 79 78 78 79 82 69 68 68 69 74 78 88 87 85 81 79 78 77 75 79 86 80 70 71 65 67 67 60 71
Wind_Direction_850mb
81 78 77 75 74 79 87 95 120 106 117 141 160 244 257 263 270 269 269 273 273 273 273 274 272 270 267 267 265 263 260 257 251 248 249 248 246 245 245 241 242 245 245
84 73 73 71 69 67 69 71 68 67 67 75 86 73 330 280 296 282 280 279 278 278 280 280 279 276 273 270 266 263 259 255 249 244 246 250 250 249 245 243 241 243 246
84 77 72 68 66 62 60 59 59 58 55 50 40 41 46 19 288 279 275 277 280 283 283 282 281 280 278 276 275 271 265 261 252 247 240 235 239 252 247 245 244 242 242
82 77 70 68 62 58 55 52 50 50 50 48 46 39 31 20 2 334 325 313 297 291 296 297 288 282 279 276 276 276 273 268 261 255 248 243 252 247 244 245 243 242 240
81 70 60 56 54 49 43 39 35 34 34 29 25 22 23 19 8 355 342 328 314 298 290 299 299 292 285 281 278 274 270 269 265 260 258 256 248 250 250 252 247 241 243
77 68 58 45 37 32 28 27 23 19 11 6 3 360 357 352 343 338 335 337 334 315 296 288 283 284 287 283 279 277 274 270 268 261 256 254 252 248 245 248 251 256 251
69 54 37 28 22 17 12 13 16 20 16 8 1 352 346 343 341 340 336 330 326 323 316 302 289 282 280 276 276 273 270 269 268 266 263 260 257 256 255 253 254 258 255
65 50 37 25 20 21 19 17 17 16 17 16 15 11 2 352 350 347 339 333 328 324 321 315 311 302 288 276 268 269 270 268 266 265 266 266 264 261 259 256 255 254 252
62 37 31 34 33 30 28 25 21 19 16 13 10 9 5 356 358 354 338 327 322 319 318 317 313 310 307 293 278 269 266 268 269 267 265 264 265 264 263 261 256 253 254
75 40 18 18 24 23 24 18 15 10 6 2 359 356 351 348 349 347 339 331 324 318 315 312 311 310 309 306 301 289 277 270 267 265 267 265 265 263 262 261 261 256 254
318 334 349 349 1 5 1 357 356 358 355 352 348 345 342 339 336 333 331 328 326 324 320 316 311 309 309 308 306 303 297 285 274 269 267 265 265 266 264 262 261 260 256
193 308 323 329 335 335 337 337 335 334 336 339 337 335 334 333 330 326 323 322 320 319 317 314 310 309 306 304 305 306 303 297 291 283 272 269 268 265 263 264 260 259 259
40 319 317 303 322 331 327 325 327 327 327 327 328 326 325 324 323 320 317 315 314 312 311 310 308 305 303 302 301 301 302 300 295 290 282 276 272 268 265 262 261 259 258
29 350 334 334 326 322 319 319 317 315 312 314 317 317 319 320 318 315 311 308 307 306 306 305 304 302 301 298 297 297 295 294 295 293 288 283 275 272 269 266 263 261 256
326 306 316 315 311 311 318 318 311 306 310 308 308 307 306 309 310 308 307 306 305 303 302 301 299 298 297 296 297 293 291 289 288 289 290 287 282 280 271 267 264 262 257
348 320 315 319 319 314 313 311 312 302 299 299 298 298 302 304 304 304 303 301 299 298 298 296 294 292 290 290 291 291 289 287 284 284 286 287 288 283 280 270 258 260 254
315 323 329 324 317 309 309 309 310 308 305 302 301 302 303 304 303 300 297 295 295 295 293 293 293 293 290 288 289 288 288 284 282 281 282 285 286 287 285 281 274 255 248
311 316 317 313 313 315 314 312 312 312 311 310 310 309 306 299 296 292 288 286 284 282 281 283 285 285 285 286 286 285 283 281 279 278 279 279 280 283 285 283 278 273 257
305 309 310 309 309 311 314 317 317 318 317 317 315 310 306 303 299 295 293 289 285 282 281 280 278 280 282 283 281 283 283 285 284 282 279 276 276 277 281 274 271 273 272
298 304 307 309 311 315 317 318 320 321 322 319 315 312 311 308 307 306 305 303 298 292 289 282 278 279 278 275 281 280 280 283 284 285 282 278 273 272 272 272 266 261 269
298 300 308 312 315 316 318 319 320 322 320 318 316 315 314 314 313 312 311 310 308 304 301 298 295 291 285 283 279 277 276 277 281 280 279 277 272 267 265 263 261 260 267
298 304 309 312 315 318 319 319 320 319 318 318 319 320 319 316 314 313 312 311 310 307 306 306 305 303 302 299 293 284 274 272 271 272 274 272 267 263 261 262 262 260 261
299 304 307 312 317 319 320 319 320 321 320 321 323 321 319 321 321 318 316 314 313 309 305 300 298 299 302 304 301 294 284 277 272 272 271 270 260 259 258 257 259 258 257
300 305 310 313 315 318 319 320 323 323 322 324 323 326 328 327 325 322 319 314 310 303 300 298 298 301 301 301 301 300 300 296 292 284 275 273 264 256 252 259 260 252 251
299 304 309 312 315 316 319 324 325 326 326 324 329 332 330 328 326 325 321 312 307 299 299 295 294 295 295 294 295 292 288 286 285 289 285 282 281 275 256 253 261 253 252
298 305 311 312 314 315 320 327 328 330 329 328 332 333 331 330 327 325 324 326 314 303 300 298 296 296 294 295 294 291 287 283 281 276 272 273 275 271 267 262 262 263 251